Date,TemperatureHighF,TemperatureAvgF,TemperatureLowF,DewpointHighF,DewpointAvgF,DewpointLowF,HumidityHigh,HumidityAvg,HumidityLow,PressureMaxIn,PressureMinIn,WindSpeedMaxMPH,WindSpeedAvgMPH,GustSpeedMaxMPH,PrecipitationSumIn
2013-4-1,86,71,64,60,48,39,71,47,20,29.88,29.77,14,2,14,0.00
2013-4-2,87,67,57,54,38,21,81,42,12,30.00,29.88,13,2,13,0.00
2013-4-3,81,67,60,65,51,37,100,63,22,30.00,29.91,14,2,14,0.00
2013-4-4,78,70,65,70,59,48,100,72,37,29.97,29.74,13,2,13,0.00
2013-4-5,68,60,56,60,55,48,99,85,62,29.94,29.71,10,1,10,0.00
2013-4-6,78,61,50,52,44,30,86,58,22,30.09,29.91,17,3,17,0.00
2013-4-7,77,66,58,64,48,37,93,58,26,30.09,30.00,10,1,10,0.00
2013-4-8,88,69,58,63,49,37,91,55,19,30.03,30.03,10,1,10,0.00
2013-4-9,89,72,64,65,52,39,93,56,20,30.09,30.03,10,1,10,0.00
2013-4-10,83,72,61,62,53,46,88,56,30,30.06,29.91,10,1,10,0.00
2013-4-11,90,76,70,71,61,44,100,64,22,29.91,29.71,13,3,13,0.00
2013-4-12,88,78,71,72,59,43,100,59,21,29.77,29.65,15,4,15,0.00
2013-4-13,84,72,63,59,38,24,66,33,13,29.91,29.77,10,2,10,0.00
2013-4-14,75,66,62,66,55,44,100,70,34,29.91,29.77,13,2,13,0.00
2013-4-15,90,70,63,68,58,45,100,71,22,30.03,29.71,12,2,12,0.00
2013-4-16,87,72,66,65,58,45,92,65,24,30.09,30.00,14,2,14,0.00
2013-4-17,78,71,65,66,58,50,91,65,40,30.09,30.00,11,2,11,0.00
2013-4-18,87,75,66,69,56,43,92,58,24,30.00,29.85,9,1,9,0.00
2013-4-19,91,79,66,68,58,45,83,52,22,29.91,29.77,17,4,17,0.00
2013-4-20,66,57,51,61,50,39,98,80,46,30.09,29.88,9,2,9,0.00
2013-4-21,72,64,56,59,48,40,82,56,38,30.12,30.03,20,5,20,0.00
2013-4-22,66,62,59,63,54,40,100,77,43,30.06,29.97,18,5,18,0.00
2013-4-23,75,64,57,58,47,39,90,59,28,30.06,29.97,13,3,13,0.00
2013-4-24,86,69,55,63,47,30,93,54,14,30.06,29.97,8,1,8,0.00
2013-4-25,88,75,63,61,50,40,85,46,20,30.09,30.00,10,1,10,0.00
2013-4-26,82,71,64,58,46,39,65,42,25,30.21,30.06,15,4,15,0.00
2013-4-27,86,72,63,60,48,36,82,47,20,30.18,30.06,13,3,13,0.00
2013-4-28,85,74,66,62,53,42,83,52,24,30.09,29.91,13,2,13,0.00
2013-4-29,83,73,66,65,54,44,96,54,26,29.94,29.83,14,2,14,0.00
2013-4-30,88,72,65,69,58,42,99,67,20,29.94,29.85,12,1,12,0.00